This demonstration page uses our WeatherBlox Daily Observations layout. Learn more.

Left ArrowRight Arrow

34.74481, -87.66753

Hourly Observations for March 14, 2022

Temp ( °F °C ) Dew Point ( °F °C ) Humidity (%) Winds ( mph kmh ) Pressure ( in mb ) Visibility ( mi km ) Precip ( " mm )
12:53 am 00:53 Clear 42 5.6 27 -2.8 55 55 SSE 5 7 30.33 1027 10 16 0.00 0.00
1:53 am 01:53 Clear 42 5.6 26 -3.3 53 53 SSE 5 7 30.33 1027 10 16 0.00 0.00
2:53 am 02:53 Clear 38 3.3 25 -3.9 60 60 ESE 3 6 30.32 1027 10 16 0.00 0.00
3:53 am 03:53 Clear 38 3.3 26 -3.3 62 62 SE 5 7 30.32 1027 10 16 0.00 0.00
4:53 am 04:53 Clear 37 2.8 24 -4.4 59 59 SE 3 6 30.33 1027 10 16 0.00 0.00
5:53 am 05:53 Clear 37 2.8 25 -3.9 62 62 SE 7 11 30.34 1028 10 16 0.00 0.00
6:53 am 06:53 Clear 38 3.3 23 -5 55 55 SE 3 6 30.36 1028 10 16 0.00 0.00
7:53 am 07:53 Sunny 40 4.4 28 -2.2 63 63 SSE 6 9 30.37 1028 10 16 0.00 0.00
8:53 am 08:53 Sunny 48 8.9 27 -2.8 44 44 SSE 6 9 30.37 1028 10 16 0.00 0.00
9:53 am 09:53 Sunny 52 11.1 29 -1.7 41 41 SSE 6 9 30.37 1029 10 16 0.00 0.00
10:53 am 10:53 Sunny 57 13.9 26 -3.3 30 30 S 9 15 30.36 1028 10 16 0.00 0.00
11:53 am 11:53 Sunny 61 16.1 24 -4.4 24 24 SSE 12 19 30.34 1028 10 16 0.00 0.00
12:53 pm 12:53 Sunny 64 17.8 24 -4.4 22 22 SSE 13 20 30.32 1027 10 16 0.00 0.00
1:53 pm 13:53 Sunny 65 18.3 25 -3.9 22 22 S 14 22 30.29 1026 10 16 0.00 0.00
2:53 pm 14:53 Sunny 65 18.3 24 -4.4 21 21 S 8 13 30.26 1025 10 16 0.00 0.00
3:53 pm 15:53 Sunny 67 19.4 27 -2.8 22 22 SSE 12 19 30.24 1024 10 16 0.00 0.00
4:53 pm 16:53 Sunny 66 18.9 26 -3.3 22 22 SSE 12 19 30.22 1023 10 16 0.00 0.00
5:53 pm 17:53 Partly Cloudy 65 18.3 29 -1.7 26 26 SSE 9 15 30.22 1024 10 16 0.00 0.00
6:53 pm 18:53 Mostly Sunny 59 15 29 -1.7 32 32 SSE 6 9 30.24 1024 10 16 0.00 0.00
7:53 pm 19:53 Mostly Cloudy 58 14.4 30 -1.1 35 35 SE 5 7 30.26 1025 10 16 0.00 0.00
8:53 pm 20:53 Mostly Cloudy 57 13.9 33 0.6 41 41 Calm 30.26 1025 10 16 0.00 0.00
9:53 pm 21:53 Mostly Cloudy 57 13.9 31 -0.6 37 37 Calm 30.28 1025 10 16 0.00 0.00
10:53 pm 22:53 Partly Cloudy 54 12.2 35 1.7 49 49 Calm 30.28 1025 10 16 0.00 0.00
11:53 pm 23:53 Cloudy 53 11.7 37 2.8 55 55 SE 5 7 30.27 1025 10 16 0.00 0.00

Powered by AerisWeather